SCP
0 0 0 0 0 0 0 0 0 0 0 -0 0 -0 -0 -0 -0 -0 -0 -0 -0 -0 -0 -0 -0 -0 -0 -0 -0 0 0 0 0 0 0 0 0 0 0 0 0 0 0 0
0 0 0 0 0 0 0 0 0 0 0 0 0 0 0 0 -0 -0 -0 -0 -0 -0 -0 -0 -0 -0 -0 -0 -0 -0 0 0 0 -0 0 0 0 0 0 0 -0 0 0 0
0 0 0 0 0 0 0 0 0 0 0 0 0 0 0 -0 -0 -0 -0 -0 -0 -0 -0 -0 -0 -0 -0 -0 -0 -0 -0 0 0 0 0 0 0 0 0 0 0 0 0 0
0 0 0 0 0 0 0 0 0 0 0 0 0 0 0 -0 -0 -0 -0 -0 -0 -0 -0 -0 -0 -0 -0 -0 -0 -0 -0 0 0 0 0 0 0 0 0 0 0 0 0 0
0 0 0 0 0 0 0 0 0 0 0 0 0 0 0 -0 -0 -0 -0 -0 -0 -0 -0 -0 -0 -0 -0 -0 -0 -0 -0 0 0 0 0 0 0 0 0 0 0 0 0 0
0 0 0 0 0 0 0 0 0 0 0 0 0 0 0 -0 -0 -0 -0 -0 -0 -0 -0 -0 -0 -0 -0 -0 -0 -0 -0 -0 0 0 0 0 0 0 0 0 0 0 0 0
0 0 0 0 0 0 0 0 0 0 0 0 0 0 0 0 0 -0 -0 -0 -0 -0 -0 -0 -0 -0 -0 -0 -0 -0 -0 -0 0 0 0 0 0 0 0 0 0 0 0 0
0 0 0 0 0 0 0 0 0 0 0 0 0 0 0 0 0 0 -0 -0 -0 -0 -0 0 -0 -0 -0 -0 -0 -0 -0 -0 -0 -0 0 0 0 0 0 0 0 0 0 0
0 0 0 0 0 0 0 0 0 0 0 0 0 0 0 0 0 0 -0 -0 -0 -0 0 -0 -0 -0 -0 -0 -0 -0 0 -0 -0 -0 -0 -0 0 0 0 0 0 0 0 0
0 0 0 0 0 0 0 0 0 0 0 0 0 0 0 0 0 0 0 -0 -0 0 0 -0 -0 -0 -0 -0 -0 -0 0 0 0 0 0 -0 0 0 0 0 0 0 0 0
0 0 0 0 0 0 0 0 0 0 0 0 0 0 0 0 0 0 0 -0 -0 0 0 -0 0 -0 -0 0 -0 -0 0 0 0 0 0 0 0 0 0 0 0 0 0 0
0 0 0 0 0 0 0 0 0 0 0 0 0 0 0 0 0 0 0 0 0 0 0 0 0 0 -0 -0 0 -0 0 0 0 0 0 0 0 0 0 0 0 -0 -0 -0
0 0 0 0 0 0 0 0 0 0 0 0 0 0 0 0 0 0 0 0 0 0 0 0 0 0 0 0 0 0 0 0 0 0 0 0 0 0 0 0 0 -0 0 -0
-0 0 0 0 0 0 0 0 0 0 0 0 0 0 0 0 0 0 0 0 0 0 0 0 0 0 0 0 0 0 0 0 0 0 0 0 0 0 0 0 0 0 -0 -0
-0 -0 0 0 0 0 0 0 0 0 0 0 0 0 0 0 0 0 0 0 0 0 0 0 0 0 0 0 0 0 0 0 0 0 0 0 0 0 0 0 0 0 0 0
-0 -0 0 0 0 0 0 0 0 0 0 0 0 0 0 0 0 0 0 0 0 0 0 0 0 0 0 0 0 0 0 0 0 0 0 0 0 0 0 0 0 0 0 0
-0 -0 -0 0 0 0 0 0 0 0 0 0 0 0 0 0 0 0 0 0 0 0 0 0 0 0 0 0 0 0 0 0 0 0 0 0 0 0 0 0 0 0 0 0
0 0 -0 -0 0 0 0 0 0 0 0 0 0 0 0 0 0 0 0 0 1 1 0 0 0 0 0 0 0 0 0 0 0 0 0 0 0 0 0 0 0 0 0 0
0 0 0 0 0 0 0 0 0 0 0 0 0 0 0 0 0 0 0 0 1 1 0 0 0 0 0 0 0 0 0 0 0 0 0 0 0 0 0 0 0 0 0 0
0 0 0 0 0 0 0 0 0 0 0 0 0 0 0 0 0 0 0 0 0 1 0 0 0 0 0 0 0 0 0 0 0 0 0 0 0 0 0 0 0 0 0 0
0 0 0 0 0 0 0 0 0 0 0 0 0 0 0 0 0 0 0 0 0 0 0 0 0 0 0 0 0 0 0 0 0 0 0 0 0 0 0 0 0 0 0 0
0 0 0 0 0 0 0 0 0 0 0 -0 0 0 0 0 0 0 0 0 0 0 0 0 0 0 0 0 0 0 0 0 0 0 0 0 0 0 0 0 0 0 0 0
0 0 0 0 0 0 0 0 0 0 0 -0 -0 0 -0 0 0 0 0 0 0 0 0 0 0 0 0 0 0 0 0 0 0 0 0 0 0 0 0 0 0 0 0 0
-0 -0 0 0 0 0 0 0 0 0 0 0 -0 0 0 0 0 0 0 0 0 0 0 0 0 0 0 0 0 0 0 0 0 0 0 0 0 0 0 0 0 0 0 0
-0 -0 0 0 0 0 0 0 0 0 0 0 0 0 0 0 0 0 0 0 0 0 0 0 0 0 0 0 0 0 0 0 0 0 0 0 0 0 0 0 0 0 0 0
-0 -0 -0 -0 0 0 0 0 0 0 0 0 0 0 0 0 0 0 0 0 0 0 0 0 0 0 0 0 0 0 0 0 0 0 0 0 0 0 0 0 0 0 0 0
0 -0 -0 -0 -0 -0 0 0 0 0 0 0 0 0 0 0 0 0 0 0 0 0 0 0 0 0 0 0 0 0 0 0 0 0 0 0 0 0 0 0 0 0 0 0
Wind_Speed_500mb
61 37 9 16 37 37 34 26 22 15 21 18 21 32 39 60 60 63 71 78 78 72 63 53 50 39 34 36 36 30 29 23 20 22 28 17 26 26 30 34 28 31 34 33
46 59 55 36 30 45 33 17 16 23 18 16 38 36 31 51 59 62 73 81 79 73 67 58 55 46 40 36 39 36 32 21 31 29 23 21 26 23 28 30 25 24 31 28
43 38 40 39 42 38 37 30 26 22 14 16 15 29 40 49 67 72 78 83 82 77 72 60 58 50 47 40 43 41 32 25 37 30 27 27 23 21 22 22 20 20 26 25
19 23 18 18 28 30 44 37 24 10 19 24 26 56 70 89 85 78 81 85 84 80 75 62 55 52 46 45 48 45 37 30 39 38 36 28 28 24 21 16 12 14 25 29
9 31 9 8 11 23 19 15 19 35 22 23 34 34 28 85 91 83 80 83 84 78 75 66 60 56 54 55 52 51 43 36 37 47 44 35 29 28 23 23 9 15 20 27
7 15 14 7 10 23 17 24 21 23 25 21 26 12 10 77 93 86 79 79 85 82 80 69 66 64 61 61 60 58 46 38 34 50 45 40 38 30 30 24 14 25 25 25
12 8 3 25 38 13 24 9 22 42 39 34 18 28 50 93 95 90 85 80 82 83 81 75 72 72 67 66 65 55 41 41 42 39 46 44 41 36 32 30 22 26 30 33
8 3 9 55 17 15 15 49 48 44 65 62 71 56 67 93 98 92 93 87 84 85 83 80 76 76 73 71 61 54 43 46 49 43 46 41 42 36 31 34 36 32 29 36
10 1 14 22 22 25 36 38 59 65 31 67 57 59 62 72 92 96 92 94 87 85 85 84 82 77 74 67 62 57 53 50 53 50 50 50 44 43 36 27 46 41 41 31
13 4 33 28 41 54 61 64 66 79 39 60 68 61 52 48 66 94 92 95 90 86 85 87 88 81 65 64 62 61 58 54 53 59 56 53 47 44 41 38 37 52 44 45
11 17 48 2 56 68 82 79 96 93 71 16 53 58 56 55 71 87 97 96 89 85 85 87 83 82 74 66 68 69 63 60 59 65 59 58 51 48 44 38 35 49 53 43
6 33 21 41 59 71 79 87 86 83 85 44 23 56 60 64 75 96 96 92 88 83 85 83 79 78 74 70 73 71 73 68 65 74 66 62 56 51 46 33 28 35 42 42
11 39 46 63 55 60 70 79 84 76 69 62 43 11 55 59 77 90 94 89 84 84 84 81 83 80 75 74 75 73 79 74 69 79 74 67 62 53 49 46 38 39 49 41
21 45 43 27 40 58 66 64 76 63 62 64 58 29 17 65 75 89 94 86 77 78 86 82 83 80 75 76 76 76 79 78 76 75 82 72 63 55 49 47 46 49 53 50
25 40 47 46 44 49 55 58 72 64 71 75 67 61 22 5 73 83 79 78 82 77 77 80 82 76 73 74 76 78 81 86 81 78 79 78 67 60 53 49 50 54 52 57
25 36 33 34 41 36 43 46 54 63 63 68 79 62 44 8 12 22 74 67 71 77 69 66 70 66 66 72 75 74 76 84 87 84 80 82 75 66 59 52 52 55 59 57
31 26 34 28 41 36 27 36 40 43 52 53 69 59 40 27 15 22 14 75 69 59 57 61 57 54 56 65 72 73 73 81 89 86 79 81 79 71 63 56 54 56 59 58
50 37 33 31 35 42 34 31 31 39 41 43 54 52 30 32 26 21 62 47 47 52 57 54 64 65 66 60 55 72 76 75 85 88 80 78 79 75 70 63 60 57 51 55
41 31 29 27 27 41 39 29 25 31 33 39 44 44 43 37 11 35 101 28 50 57 50 49 40 38 47 73 77 66 71 71 80 86 85 81 79 78 74 70 67 63 64 63
43 29 14 20 41 47 43 43 35 31 41 48 42 44 42 57 25 74 63 25 41 45 37 30 26 32 44 53 73 77 65 63 69 76 83 88 90 88 83 75 71 69 66 75
42 33 25 26 25 25 55 45 35 39 44 43 40 37 50 62 66 69 41 36 47 37 35 29 30 32 26 31 53 68 73 69 65 65 66 76 84 88 86 77 73 77 81 76
42 39 35 34 33 28 14 30 33 40 42 37 21 25 36 57 62 53 49 35 45 47 42 40 31 22 21 28 24 37 38 54 64 58 52 54 68 75 81 85 88 83 76 75
30 33 42 53 44 37 33 30 31 19 30 46 41 43 45 46 47 37 40 30 40 54 52 47 40 23 22 20 21 33 40 41 35 39 45 55 59 59 65 74 86 84 84 78
41 42 32 47 41 42 45 47 37 45 62 57 53 53 57 55 48 40 38 41 47 49 52 52 42 30 15 27 27 27 31 35 39 41 44 47 54 52 48 47 50 52 55 62
52 54 38 24 34 42 45 45 51 55 52 57 51 44 62 67 59 37 37 42 49 53 50 49 47 25 9 20 23 26 29 27 23 20 19 21 26 32 30 28 32 41 47 52
61 50 55 41 10 15 32 32 38 43 50 49 42 37 59 69 64 62 50 47 43 42 46 46 45 48 46 36 36 33 26 22 19 16 17 19 22 24 26 27 30 34 39 45
64 63 61 58 31 16 8 12 20 23 53 46 47 43 61 65 55 59 52 50 45 43 43 46 50 49 49 43 32 27 24 18 13 11 10 7 5 5 10 13 17 21 25 33
Wind_Direction_500mb
222 234 248 220 213 193 189 182 174 201 192 218 191 176 181 176 172 168 175 181 184 186 190 193 192 190 184 182 186 187 188 179 166 143 124 110 99 94 117 129 125 137 144 147
221 226 239 249 229 197 193 177 142 179 208 202 191 182 152 172 168 174 180 185 190 191 191 193 194 189 184 181 188 191 189 178 160 149 158 143 115 96 125 134 131 145 157 160
223 219 232 236 235 209 184 177 152 186 201 169 149 175 179 175 178 182 185 189 194 196 195 193 195 191 186 183 188 190 191 180 169 164 156 146 143 133 117 118 114 119 148 160
221 209 215 228 208 203 198 183 186 160 176 168 190 190 192 190 184 187 189 193 199 198 198 195 193 192 186 185 191 190 190 186 174 171 169 162 164 174 164 135 111 136 141 154
194 204 240 215 218 181 166 231 178 184 195 193 178 166 185 191 192 192 195 199 200 201 200 193 192 190 187 187 193 192 190 189 179 176 177 178 170 167 169 159 134 153 144 145
322 151 197 169 285 193 154 222 192 176 186 193 141 145 222 193 197 198 198 201 201 203 202 194 192 190 187 190 194 195 194 192 187 185 185 187 191 185 172 175 165 167 163 153
234 257 76 344 318 114 166 273 313 189 193 186 179 188 196 191 197 201 199 202 205 204 202 197 192 190 191 192 197 200 197 194 194 184 187 191 188 192 201 193 184 168 173 171
317 172 67 349 344 60 304 320 346 214 193 193 204 194 189 192 198 201 203 203 204 205 204 199 194 192 194 197 197 198 194 195 200 191 185 191 194 198 197 204 193 185 177 180
30 216 344 336 52 5 349 350 4 350 233 193 182 180 175 189 199 199 201 201 202 206 203 202 196 196 198 200 194 194 194 194 201 197 193 196 193 198 204 206 199 195 196 193
328 245 341 309 355 349 1 2 357 1 357 194 180 172 178 180 187 194 194 198 199 201 204 202 199 201 204 198 193 195 197 197 202 198 197 201 203 205 211 211 207 201 207 209
291 307 336 322 349 350 352 358 7 2 2 345 182 171 178 184 183 187 191 196 194 199 205 204 201 203 203 200 194 196 199 201 205 202 199 200 207 210 217 228 227 210 210 213
286 297 269 288 325 340 349 357 358 353 349 6 348 180 175 182 186 186 190 191 193 201 207 206 202 205 203 201 199 197 198 202 207 204 204 205 207 211 217 225 227 226 222 221
254 288 293 294 312 332 344 351 353 352 347 6 16 233 188 190 191 192 189 191 198 204 207 207 205 206 206 202 203 204 202 204 209 208 207 207 209 212 212 211 215 214 212 214
268 271 308 312 316 332 336 348 355 356 1 11 21 27 204 194 193 188 187 194 200 203 205 204 206 207 208 205 207 209 210 208 209 212 212 212 214 217 219 218 211 202 201 202
254 262 282 303 318 322 329 349 338 339 352 12 18 16 8 272 191 183 184 190 197 203 202 204 206 209 210 207 209 212 214 212 213 215 218 217 218 221 224 224 222 213 204 204
276 273 260 270 317 317 321 322 329 342 3 8 7 4 7 14 206 184 188 191 192 197 197 197 203 208 211 211 211 212 217 218 217 219 219 218 219 222 224 228 226 222 216 213
339 218 215 278 307 299 291 306 318 342 356 1 6 356 2 24 186 159 16 181 179 193 199 205 207 204 209 213 214 214 213 218 222 222 224 223 221 222 228 230 228 228 226 223
335 307 273 273 290 287 281 300 315 342 338 343 354 3 19 38 39 64 314 224 178 194 200 207 213 212 211 211 215 220 215 216 221 225 225 223 224 228 228 232 232 232 231 230
328 342 265 254 281 279 271 273 296 317 320 315 338 354 13 8 316 255 294 193 182 176 175 190 199 198 213 223 215 220 220 221 222 223 227 230 232 235 235 235 236 239 241 240
317 324 335 282 260 270 264 271 272 291 289 295 315 345 340 338 338 290 292 286 178 190 176 185 207 209 211 219 222 222 221 225 226 225 229 231 233 235 236 239 241 240 244 247
321 314 301 289 271 301 244 241 257 257 275 288 304 312 324 326 315 311 311 272 186 184 187 192 174 167 169 199 219 223 225 227 231 229 237 239 238 237 236 237 240 244 244 247
330 320 302 281 281 263 212 224 251 249 272 281 307 308 303 300 308 322 310 256 184 187 188 201 214 219 214 207 194 202 213 221 226 232 238 239 241 241 241 240 240 243 245 247
333 313 288 277 270 270 256 250 226 236 242 274 273 261 277 298 317 296 280 240 178 175 190 199 206 205 216 206 201 216 221 223 213 215 225 236 241 244 247 248 246 246 245 245
347 339 295 273 260 262 259 252 249 235 246 262 269 255 276 305 298 296 264 240 199 187 188 191 199 201 209 231 232 234 228 227 232 234 238 241 242 243 241 233 235 245 248 249
3 5 360 288 259 256 253 250 253 256 247 249 265 258 267 279 274 245 238 213 216 213 207 208 203 195 150 246 222 206 204 208 217 229 235 235 233 232 236 233 233 241 251 255
21 18 13 29 83 219 237 237 242 240 222 227 242 234 241 265 249 222 199 192 198 209 209 220 226 226 200 217 207 201 197 197 199 213 229 238 242 247 249 251 258 263 258 249
26 18 18 22 38 70 179 161 190 199 205 201 211 197 201 219 209 202 199 197 185 182 179 168 168 176 179 180 183 187 189 187 172 159 145 146 159 224 240 238 244 247 247 247
Wind_Speed_850mb
61 37 9 16 37 37 34 26 22 15 21 18 21 32 39 60 60 63 71 78 78 72 63 53 50 39 34 36 36 30 29 23 20 22 28 17 26 26 30 34 28 31 34 33
46 59 55 36 30 45 33 17 16 23 18 16 38 36 31 51 59 62 73 81 79 73 67 58 55 46 40 36 39 36 32 21 31 29 23 21 26 23 28 30 25 24 31 28
43 38 40 39 42 38 37 30 26 22 14 16 15 29 40 49 67 72 78 83 82 77 72 60 58 50 47 40 43 41 32 25 37 30 27 27 23 21 22 22 20 20 26 25
19 23 18 18 28 30 44 37 24 10 19 24 26 56 70 89 85 78 81 85 84 80 75 62 55 52 46 45 48 45 37 30 39 38 36 28 28 24 21 16 12 14 25 29
9 31 9 8 11 23 19 15 19 35 22 23 34 34 28 85 91 83 80 83 84 78 75 66 60 56 54 55 52 51 43 36 37 47 44 35 29 28 23 23 9 15 20 27
7 15 14 7 10 23 17 24 21 23 25 21 26 12 10 77 93 86 79 79 85 82 80 69 66 64 61 61 60 58 46 38 34 50 45 40 38 30 30 24 14 25 25 25
12 8 3 25 38 13 24 9 22 42 39 34 18 28 50 93 95 90 85 80 82 83 81 75 72 72 67 66 65 55 41 41 42 39 46 44 41 36 32 30 22 26 30 33
8 3 9 55 17 15 15 49 48 44 65 62 71 56 67 93 98 92 93 87 84 85 83 80 76 76 73 71 61 54 43 46 49 43 46 41 42 36 31 34 36 32 29 36
10 1 14 22 22 25 36 38 59 65 31 67 57 59 62 72 92 96 92 94 87 85 85 84 82 77 74 67 62 57 53 50 53 50 50 50 44 43 36 27 46 41 41 31
13 4 33 28 41 54 61 64 66 79 39 60 68 61 52 48 66 94 92 95 90 86 85 87 88 81 65 64 62 61 58 54 53 59 56 53 47 44 41 38 37 52 44 45
11 17 48 2 56 68 82 79 96 93 71 16 53 58 56 55 71 87 97 96 89 85 85 87 83 82 74 66 68 69 63 60 59 65 59 58 51 48 44 38 35 49 53 43
6 33 21 41 59 71 79 87 86 83 85 44 23 56 60 64 75 96 96 92 88 83 85 83 79 78 74 70 73 71 73 68 65 74 66 62 56 51 46 33 28 35 42 42
11 39 46 63 55 60 70 79 84 76 69 62 43 11 55 59 77 90 94 89 84 84 84 81 83 80 75 74 75 73 79 74 69 79 74 67 62 53 49 46 38 39 49 41
21 45 43 27 40 58 66 64 76 63 62 64 58 29 17 65 75 89 94 86 77 78 86 82 83 80 75 76 76 76 79 78 76 75 82 72 63 55 49 47 46 49 53 50
25 40 47 46 44 49 55 58 72 64 71 75 67 61 22 5 73 83 79 78 82 77 77 80 82 76 73 74 76 78 81 86 81 78 79 78 67 60 53 49 50 54 52 57
25 36 33 34 41 36 43 46 54 63 63 68 79 62 44 8 12 22 74 67 71 77 69 66 70 66 66 72 75 74 76 84 87 84 80 82 75 66 59 52 52 55 59 57
31 26 34 28 41 36 27 36 40 43 52 53 69 59 40 27 15 22 14 75 69 59 57 61 57 54 56 65 72 73 73 81 89 86 79 81 79 71 63 56 54 56 59 58
50 37 33 31 35 42 34 31 31 39 41 43 54 52 30 32 26 21 62 47 47 52 57 54 64 65 66 60 55 72 76 75 85 88 80 78 79 75 70 63 60 57 51 55
41 31 29 27 27 41 39 29 25 31 33 39 44 44 43 37 11 35 101 28 50 57 50 49 40 38 47 73 77 66 71 71 80 86 85 81 79 78 74 70 67 63 64 63
43 29 14 20 41 47 43 43 35 31 41 48 42 44 42 57 25 74 63 25 41 45 37 30 26 32 44 53 73 77 65 63 69 76 83 88 90 88 83 75 71 69 66 75
42 33 25 26 25 25 55 45 35 39 44 43 40 37 50 62 66 69 41 36 47 37 35 29 30 32 26 31 53 68 73 69 65 65 66 76 84 88 86 77 73 77 81 76
42 39 35 34 33 28 14 30 33 40 42 37 21 25 36 57 62 53 49 35 45 47 42 40 31 22 21 28 24 37 38 54 64 58 52 54 68 75 81 85 88 83 76 75
30 33 42 53 44 37 33 30 31 19 30 46 41 43 45 46 47 37 40 30 40 54 52 47 40 23 22 20 21 33 40 41 35 39 45 55 59 59 65 74 86 84 84 78
41 42 32 47 41 42 45 47 37 45 62 57 53 53 57 55 48 40 38 41 47 49 52 52 42 30 15 27 27 27 31 35 39 41 44 47 54 52 48 47 50 52 55 62
52 54 38 24 34 42 45 45 51 55 52 57 51 44 62 67 59 37 37 42 49 53 50 49 47 25 9 20 23 26 29 27 23 20 19 21 26 32 30 28 32 41 47 52
61 50 55 41 10 15 32 32 38 43 50 49 42 37 59 69 64 62 50 47 43 42 46 46 45 48 46 36 36 33 26 22 19 16 17 19 22 24 26 27 30 34 39 45
64 63 61 58 31 16 8 12 20 23 53 46 47 43 61 65 55 59 52 50 45 43 43 46 50 49 49 43 32 27 24 18 13 11 10 7 5 5 10 13 17 21 25 33
Wind_Direction_850mb
222 234 248 220 213 193 189 182 174 201 192 218 191 176 181 176 172 168 175 181 184 186 190 193 192 190 184 182 186 187 188 179 166 143 124 110 99 94 117 129 125 137 144 147
221 226 239 249 229 197 193 177 142 179 208 202 191 182 152 172 168 174 180 185 190 191 191 193 194 189 184 181 188 191 189 178 160 149 158 143 115 96 125 134 131 145 157 160
223 219 232 236 235 209 184 177 152 186 201 169 149 175 179 175 178 182 185 189 194 196 195 193 195 191 186 183 188 190 191 180 169 164 156 146 143 133 117 118 114 119 148 160
221 209 215 228 208 203 198 183 186 160 176 168 190 190 192 190 184 187 189 193 199 198 198 195 193 192 186 185 191 190 190 186 174 171 169 162 164 174 164 135 111 136 141 154
194 204 240 215 218 181 166 231 178 184 195 193 178 166 185 191 192 192 195 199 200 201 200 193 192 190 187 187 193 192 190 189 179 176 177 178 170 167 169 159 134 153 144 145
322 151 197 169 285 193 154 222 192 176 186 193 141 145 222 193 197 198 198 201 201 203 202 194 192 190 187 190 194 195 194 192 187 185 185 187 191 185 172 175 165 167 163 153
234 257 76 344 318 114 166 273 313 189 193 186 179 188 196 191 197 201 199 202 205 204 202 197 192 190 191 192 197 200 197 194 194 184 187 191 188 192 201 193 184 168 173 171
317 172 67 349 344 60 304 320 346 214 193 193 204 194 189 192 198 201 203 203 204 205 204 199 194 192 194 197 197 198 194 195 200 191 185 191 194 198 197 204 193 185 177 180
30 216 344 336 52 5 349 350 4 350 233 193 182 180 175 189 199 199 201 201 202 206 203 202 196 196 198 200 194 194 194 194 201 197 193 196 193 198 204 206 199 195 196 193
328 245 341 309 355 349 1 2 357 1 357 194 180 172 178 180 187 194 194 198 199 201 204 202 199 201 204 198 193 195 197 197 202 198 197 201 203 205 211 211 207 201 207 209
291 307 336 322 349 350 352 358 7 2 2 345 182 171 178 184 183 187 191 196 194 199 205 204 201 203 203 200 194 196 199 201 205 202 199 200 207 210 217 228 227 210 210 213
286 297 269 288 325 340 349 357 358 353 349 6 348 180 175 182 186 186 190 191 193 201 207 206 202 205 203 201 199 197 198 202 207 204 204 205 207 211 217 225 227 226 222 221
254 288 293 294 312 332 344 351 353 352 347 6 16 233 188 190 191 192 189 191 198 204 207 207 205 206 206 202 203 204 202 204 209 208 207 207 209 212 212 211 215 214 212 214
268 271 308 312 316 332 336 348 355 356 1 11 21 27 204 194 193 188 187 194 200 203 205 204 206 207 208 205 207 209 210 208 209 212 212 212 214 217 219 218 211 202 201 202
254 262 282 303 318 322 329 349 338 339 352 12 18 16 8 272 191 183 184 190 197 203 202 204 206 209 210 207 209 212 214 212 213 215 218 217 218 221 224 224 222 213 204 204
276 273 260 270 317 317 321 322 329 342 3 8 7 4 7 14 206 184 188 191 192 197 197 197 203 208 211 211 211 212 217 218 217 219 219 218 219 222 224 228 226 222 216 213
339 218 215 278 307 299 291 306 318 342 356 1 6 356 2 24 186 159 16 181 179 193 199 205 207 204 209 213 214 214 213 218 222 222 224 223 221 222 228 230 228 228 226 223
335 307 273 273 290 287 281 300 315 342 338 343 354 3 19 38 39 64 314 224 178 194 200 207 213 212 211 211 215 220 215 216 221 225 225 223 224 228 228 232 232 232 231 230
328 342 265 254 281 279 271 273 296 317 320 315 338 354 13 8 316 255 294 193 182 176 175 190 199 198 213 223 215 220 220 221 222 223 227 230 232 235 235 235 236 239 241 240
317 324 335 282 260 270 264 271 272 291 289 295 315 345 340 338 338 290 292 286 178 190 176 185 207 209 211 219 222 222 221 225 226 225 229 231 233 235 236 239 241 240 244 247
321 314 301 289 271 301 244 241 257 257 275 288 304 312 324 326 315 311 311 272 186 184 187 192 174 167 169 199 219 223 225 227 231 229 237 239 238 237 236 237 240 244 244 247
330 320 302 281 281 263 212 224 251 249 272 281 307 308 303 300 308 322 310 256 184 187 188 201 214 219 214 207 194 202 213 221 226 232 238 239 241 241 241 240 240 243 245 247
333 313 288 277 270 270 256 250 226 236 242 274 273 261 277 298 317 296 280 240 178 175 190 199 206 205 216 206 201 216 221 223 213 215 225 236 241 244 247 248 246 246 245 245
347 339 295 273 260 262 259 252 249 235 246 262 269 255 276 305 298 296 264 240 199 187 188 191 199 201 209 231 232 234 228 227 232 234 238 241 242 243 241 233 235 245 248 249
3 5 360 288 259 256 253 250 253 256 247 249 265 258 267 279 274 245 238 213 216 213 207 208 203 195 150 246 222 206 204 208 217 229 235 235 233 232 236 233 233 241 251 255
21 18 13 29 83 219 237 237 242 240 222 227 242 234 241 265 249 222 199 192 198 209 209 220 226 226 200 217 207 201 197 197 199 213 229 238 242 247 249 251 258 263 258 249
26 18 18 22 38 70 179 161 190 199 205 201 211 197 201 219 209 202 199 197 185 182 179 168 168 176 179 180 183 187 189 187 172 159 145 146 159 224 240 238 244 247 247 247